User: anonymous   Login
Location: *
(51.4660°N, 0.3360°W)
Time: 03:32:37
(UTC+00:00)
Language:

Cosmos 1420 Rocket - Orbit

View from above orbital plane
View from above orbital plane
View from above satellite
View from above satellite

Ground track
Ground track

The orbit data is extracted from the following two-line orbital elements,

1 13649U 82109B   19325.12931914  .00000085  00000-0  37318-4 0  9992
2 13649  73.9986 177.3423 0017667 128.0544  15.2182 14.37157081939035
Epoch (UTC): 21 November 2019 03:06:13
Eccentricity: 0.0017667
inclination: 73.9986°
perigee height: 755 km
apogee height: 780 km
right ascension of ascending node: 177.3423°
argument of perigee: 128.0544°
revolutions per day: 14.37157081
mean anomaly at epoch: 15.2182°
orbit number at epoch: 93903

The dashed part of the orbit path shows where the satellite is in the earth's shadow,  

DLR